Location: Naloco
(16.5478°S, 37.1017°E)
Time: 02:28:28
(UTC+00:00)

Cosmos 2369 Rocket - Pass Details

Date: 13 August 2020
Orbit: 828 x 853 km, 71.0° (Epoch: 23 September)

Event Time Altitude Azimuth Distance (km) Brightness Sun altitude
Rises 15:42:11 0° 347° (NNW) 3,395 5.7 -5.4°
Reaches altitude 10° 15:44:37 10° 349° (N) 2,468 5.0 -6.0°
Maximum altitude 15:50:17 78° 74° (ENE) 877 2.2 -7.3°
Drops below altitude 10° 15:56:01 10° 160° (SSE) 2,494 4.3 -8.6°
Sets 15:58:29 0° 161° (SSE) 3,434 5.1 -9.2°
